Regional Weather Roundup
Issued by NWS Bismarck, ND

Home | Current Version | Previous Version | Text Only | Print | Product List | Glossary On
Versions: 1 2 3 4 5 6 7 8 9 10 11 12 13 14 15 16 17 18 19 20 21 22 23 24 25 26 27 28 29 30 31 32 33 34 35 36 37 38 39 40 41 42 43 44 45 46 47 48 49 50
000
ASUS43 KBIS 221310
RWRBIS

NWR BROADCAST TEXT
NATIONAL WEATHER SERVICE BISMARCK ND
800 AM CDT TUE AUG 22 2017

NOTE: "FAIR" INDICATES FEW OR NO CLOUDS BELOW 12,000 FEET WITH NO
SIGNIFICANT WEATHER AND/OR OBSTRUCTIONS TO VISIBILITY.


CITY           SKY/WX    TMP DP  RH WIND       PRES   REMARKS
WILLISTON      PTCLDY    46  41  82 CALM      30.21R
MINOT          SUNNY     51  41  68 SW8       30.16R
MINOT AFB      SUNNY     52  40  63 W8        30.15R
BISMARCK       SUNNY     50  45  83 SW3       30.20R
DICKINSON      CLOUDY    51  44  77 NW3       30.21R
GARRISON         N/A     47  44  90 CALM      30.18R
HETTINGER ARPT PTCLDY    40  37  89 W3        30.24R
JAMESTOWN      SUNNY     54  47  77 NW8       30.13R
CARRINGTON     FAIR      50  45  81 W10       30.16R
HAZEN            N/A     45  43  93 CALM      30.22R
LINTON           N/A     48  43  81 CALM      30.22R
MANDAN         FAIR      50  45  81 W8        30.20R
RUGBY          FAIR      45  43  93 W5        30.14R
STANLEY        FAIR      52  37  58 NW6       30.22R
TIOGA          FAIR      45  41  87 CALM      30.22R
WATFORD CITY   FAIR      45  39  81 CALM      30.21R
$$

CITY           SKY/WX    TMP DP  RH WIND       PRES   REMARKS
GRAND FORKS    SUNNY     53  49  86 W9        30.04R
GRAND FORKS AF MOSUNNY   55  46  71 W9        30.06R
DEVILS LAKE    SUNNY     54  46  74 NW10      30.12R
FARGO          SUNNY     53  49  86 W8        30.06R
CANDO          FAIR      50  50 100 W9        30.13R
CAVALIER       FAIR      55  46  71 W8        30.03R
GRAFTON        FAIR      55  46  71 W12G17    30.05S
GWINNER        SUNNY     54  46  76 W9        30.12R
LANGDON        FAIR      48  48 100 W8        30.08S
ROLLA          FAIR      54  46  76 NW7       30.12R
WALHALLA       FAIR      57  57 100 W12G18    30.03S
$$

CITY           SKY/WX    TMP DP  RH WIND       PRES   REMARKS
ABERDEEN       SUNNY     51  46  83 NW3       30.16R
MOBRIDGE       MOSUNNY   53  48  83 N5        30.18R
BUFFALO          N/A     52  40  63 CALM      30.17S
RAPID CITY     CLEAR     52  42  69 CALM      30.25R
SIDNEY         CLEAR     44  39  82 CALM      30.22R
WOLF POINT     CLEAR     46  31  55 CALM      30.21R
GLENDIVE       PTCLDY    49  34  56 N3        30.22R
MILES CITY     CLEAR     53  35  50 NE7       30.18S
BAKER          PTCLDY    49  37  63 E5        30.23R
$$

CITY           SKY/WX    TMP DP  RH WIND       PRES   REMARKS
BILLINGS       CLOUDY    53  35  50 SW7       30.20R
GREAT FALLS    CLEAR     49  34  56 SW7       30.17S
REGINA         MOCLDY    46  37  71 SE3       30.17R
$$





USA.gov is the U.S. government's official web portal to all federal, state and local government web resources and services.